| time (UTC) | temp F | wind direction | speed knots | gust knots | rain 1hr in | rain 24hr in | rain mn in | humidity % | barometer mb |
| 20260507094541 | 54 | 295 | 8.7 | 16.5 | 0.00 | 0.00 | 0.00 | 60 | 1014.7 |
| 20260507093054 | 54 | 291 | 9.6 | 20.0 | 0.00 | 0.00 | 0.00 | 62 | 1014.4 |
| 20260507091547 | 55 | 294 | 8.7 | 17.4 | 0.00 | 0.00 | 0.00 | 62 | 1014.5 |
| 20260507090100 | 55 | 266 | 8.7 | 16.5 | 0.00 | 0.00 | 0.00 | 63 | 1014.4 |
| 20260507084644 | 54 | 291 | 8.7 | 21.7 | 0.00 | 0.00 | 0.00 | 65 | 1014.3 |
| 20260507083056 | 54 | 277 | 5.2 | 12.2 | 0.00 | 0.00 | 0.00 | 65 | 1014.5 |
| 20260507081548 | 55 | 323 | 6.1 | 14.8 | 0.00 | 0.00 | 0.00 | 64 | 1014.6 |
| 20260507080043 | 55 | 355 | 6.1 | 12.2 | 0.00 | 0.00 | 0.00 | 64 | 1014.3 |
| 20260507074550 | 55 | 263 | 3.5 | 8.7 | 0.00 | 0.00 | 0.00 | 64 | 1014.0 |
| 20260507073039 | 55 | 329 | 4.3 | 13.9 | 0.00 | 0.00 | 0.00 | 65 | 1013.9 |
| 20260507071557 | 55 | 281 | 6.1 | 12.2 | 0.00 | 0.00 | 0.00 | 65 | 1013.8 |
| 20260507070049 | 55 | 272 | 6.1 | 11.3 | 0.00 | 0.00 | 0.00 | 65 | 1013.9 |
| 20260507064559 | 55 | 288 | 5.2 | 15.6 | 0.00 | 0.00 | 0.00 | 65 | 1013.8 |
| 20260507063050 | 55 | 327 | 8.7 | 15.6 | 0.00 | 0.00 | 0.00 | 65 | 1013.9 |
| 20260507061556 | 56 | 315 | 5.2 | 15.6 | 0.00 | 0.00 | 0.00 | 64 | 1014.1 |
| 20260507060045 | 56 | 345 | 7.8 | 15.6 | 0.00 | 0.00 | 0.00 | 65 | 1014.0 |
| 20260507054557 | 56 | 321 | 8.7 | 18.2 | 0.00 | 0.00 | 0.00 | 65 | 1014.0 |
| 20260507053049 | 56 | 328 | 7.0 | 16.5 | 0.00 | 0.00 | 0.00 | 64 | 1014.0 |
| 20260507051543 | 56 | 348 | 7.0 | 13.0 | 0.00 | 0.00 | 0.00 | 65 | 1014.4 |
| 20260507050052 | 56 | 343 | 5.2 | 14.8 | 0.00 | 0.00 | 0.00 | 64 | 1014.6 |
| 20260507044541 | 57 | 319 | 6.1 | 15.6 | 0.00 | 0.00 | 0.00 | 64 | 1014.6 |
| 20260507043052 | 57 | 319 | 5.2 | 13.9 | 0.00 | 0.00 | 0.00 | 63 | 1014.6 |
| 20260507041541 | 57 | 327 | 6.1 | 10.4 | 0.00 | 0.00 | 0.00 | 63 | 1014.4 |
| 20260507040057 | 58 | 309 | 2.6 | 13.0 | 0.00 | 0.00 | 0.00 | 62 | 1014.1 |
| 20260507034548 | 58 | 284 | 7.0 | 15.6 | 0.00 | 0.00 | 0.00 | 61 | 1013.6 |
| 20260507033059 | 58 | 283 | 6.1 | 15.6 | 0.00 | 0.00 | 0.00 | 61 | 1013.3 |
| 20260507031545 | 59 | 312 | 8.7 | 18.2 | 0.00 | 0.00 | 0.00 | 59 | 1013.2 |
| 20260507030043 | 61 | 265 | 8.7 | 19.1 | 0.00 | 0.00 | 0.00 | 57 | 1013.2 |
| 20260507024603 | 62 | 284 | 7.0 | 17.4 | 0.00 | 0.00 | 0.00 | 55 | 1013.4 |
| 20260507023048 | 63 | 313 | 4.3 | 13.9 | 0.00 | 0.00 | 0.00 | 54 | 1013.5 |
| 20260507021552 | 64 | 336 | 5.2 | 11.3 | 0.00 | 0.00 | 0.00 | 52 | 1013.6 |
| 20260507020057 | 65 | 360 | 1.7 | 11.3 | 0.00 | 0.00 | 0.00 | 50 | 1013.3 |
| 20260507014553 | 65 | 261 | 8.7 | 21.7 | 0.00 | 0.00 | 0.00 | 48 | 1013.0 |
| 20260507013056 | 65 | 300 | 8.7 | 18.2 | 0.00 | 0.00 | 0.00 | 46 | 1013.0 |
| 20260507011541 | 66 | 305 | 7.8 | 24.3 | 0.00 | 0.00 | 0.00 | 45 | 1012.7 |
| 20260507010056 | 67 | 316 | 8.7 | 14.8 | 0.00 | 0.00 | 0.00 | 44 | 1012.6 |
| 20260507004554 | 67 | 289 | 6.1 | 13.9 | 0.00 | 0.00 | 0.00 | 44 | 1012.5 |
| 20260507003056 | 68 | 302 | 6.1 | 20.9 | 0.00 | 0.00 | 0.00 | 44 | 1012.5 |
| 20260507001551 | 68 | 248 | 7.0 | 15.6 | 0.00 | 0.00 | 0.00 | 43 | 1012.3 |
| 20260507000156 | 68 | 347 | 7.8 | 20.9 | 0.00 | 0.00 | 0.00 | 43 | 1012.2 |
| 20260506234548 | 69 | 338 | 8.7 | 16.5 | 0.00 | 0.00 | 0.00 | 42 | 1012.0 |
| 20260506233109 | 69 | 286 | 6.1 | 14.8 | 0.00 | 0.00 | 0.00 | 41 | 1012.1 |
| 20260506231556 | 70 | 270 | 5.2 | 13.0 | 0.00 | 0.00 | 0.00 | 41 | 1012.1 |
| 20260506230057 | 70 | 319 | 7.0 | 16.5 | 0.00 | 0.00 | 0.00 | 41 | 1012.1 |
| 20260506224543 | 71 | 298 | 6.1 | 13.0 | 0.00 | 0.00 | 0.00 | 40 | 1012.2 |
| 20260506223044 | 71 | 304 | 7.0 | 13.9 | 0.00 | 0.00 | 0.00 | 41 | 1012.1 |
| 20260506221550 | 72 | 288 | 7.8 | 13.9 | 0.00 | 0.00 | 0.00 | 40 | 1012.1 |
| 20260506220058 | 72 | 288 | 7.8 | 18.2 | 0.00 | 0.00 | 0.00 | 39 | 1012.1 |
| 20260506214553 | 73 | 296 | 11.3 | 22.6 | 0.00 | 0.00 | 0.00 | 39 | 1012.0 |
| 20260506213056 | 74 | 262 | 12.2 | 20.9 | 0.00 | 0.00 | 0.00 | 39 | 1012.0 |
| 20260506211552 | 74 | 275 | 9.6 | 20.9 | 0.00 | 0.00 | 0.00 | 39 | 1011.9 |
| 20260506210043 | 74 | 291 | 9.6 | 18.2 | 0.00 | 0.00 | 0.00 | 38 | 1011.9 |
| 20260506204554 | 74 | 299 | 11.3 | 24.3 | 0.00 | 0.00 | 0.00 | 39 | 1011.9 |
| 20260506203049 | 76 | 321 | 10.4 | 21.7 | 0.00 | 0.00 | 0.00 | 39 | 1011.4 |
| 20260506201541 | 76 | 293 | 8.7 | 26.1 | 0.00 | 0.00 | 0.00 | 39 | 1011.3 |
| 20260506200049 | 75 | 266 | 8.7 | 18.2 | 0.00 | 0.00 | 0.00 | 38 | 1011.3 |
| 20260506194537 | 76 | 274 | 11.3 | 24.3 | 0.00 | 0.00 | 0.00 | 38 | 1011.2 |
| 20260506193049 | 76 | 230 | 12.2 | 26.1 | 0.00 | 0.00 | 0.00 | 38 | 1011.4 |
| 20260506191541 | 76 | 266 | 11.3 | 27.8 | 0.00 | 0.00 | 0.00 | 33 | 1011.5 |
| 20260506190047 | 76 | 271 | 10.4 | 21.7 | 0.00 | 0.00 | 0.00 | 33 | 1011.4 |
| 20260506184606 | 76 | 258 | 8.7 | 22.6 | 0.00 | 0.00 | 0.00 | 35 | 1011.4 |
| 20260506183054 | 75 | 259 | 10.4 | 20.0 | 0.00 | 0.00 | 0.00 | 35 | 1011.6 |
| 20260506181608 | 75 | 286 | 11.3 | 23.5 | 0.00 | 0.00 | 0.00 | 36 | 1011.7 |
| 20260506180049 | 75 | 309 | 10.4 | 20.0 | 0.00 | 0.00 | 0.00 | 37 | 1011.8 |
| 20260506174542 | 73 | 301 | 7.8 | 17.4 | 0.00 | 0.00 | 0.00 | 40 | 1011.8 |
| 20260506173059 | 72 | 315 | 5.2 | 13.9 | 0.00 | 0.00 | 0.00 | 43 | 1011.8 |
| 20260506171542 | 71 | 289 | 7.8 | 15.6 | 0.00 | 0.00 | 0.00 | 45 | 1012.0 |
| 20260506170055 | 70 | 281 | 5.2 | 14.8 | 0.00 | 0.00 | 0.00 | 46 | 1012.1 |
| 20260506164544 | 69 | 309 | 8.7 | 16.5 | 0.00 | 0.00 | 0.00 | 45 | 1012.2 |
| 20260506163055 | 68 | 275 | 8.7 | 16.5 | 0.00 | 0.00 | 0.00 | 46 | 1012.3 |
| 20260506161548 | 67 | 302 | 7.0 | 18.2 | 0.00 | 0.00 | 0.00 | 48 | 1012.3 |
| 20260506154550 | 65 | 283 | 7.0 | 13.9 | 0.00 | 0.00 | 0.00 | 51 | 1012.6 |
| 20260506153113 | 64 | 349 | 6.1 | 13.0 | 0.00 | 0.00 | 0.00 | 53 | 1012.6 |
| 20260506151544 | 63 | 321 | 6.1 | 15.6 | 0.00 | 0.00 | 0.00 | 56 | 1012.8 |
| 20260506150100 | 63 | 272 | 6.1 | 11.3 | 0.00 | 0.00 | 0.00 | 56 | 1012.7 |
| 20260506144554 | 62 | 267 | 3.5 | 9.6 | 0.00 | 0.00 | 0.00 | 58 | 1012.8 |
| 20260506143043 | 61 | 269 | 4.3 | 13.0 | 0.00 | 0.00 | 0.00 | 60 | 1012.8 |
| 20260506141552 | 60 | 298 | 4.3 | 12.2 | 0.00 | 0.00 | 0.00 | 61 | 1012.8 |
| 20260506140044 | 59 | 271 | 5.2 | 12.2 | 0.00 | 0.00 | 0.00 | 63 | 1012.8 |
| 20260506134538 | 58 | 215 | 5.2 | 9.6 | 0.00 | 0.00 | 0.00 | 66 | 1012.9 |
| 20260506133050 | 57 | 229 | 0.9 | 3.5 | 0.00 | 0.00 | 0.00 | 69 | 1012.8 |
| 20260506131546 | 57 | 266 | 3.5 | 7.8 | 0.00 | 0.00 | 0.00 | 68 | 1012.6 |
| 20260506130049 | 57 | 280 | 3.5 | 7.0 | 0.00 | 0.00 | 0.00 | 67 | 1012.7 |
| 20260506124540 | 57 | 250 | 0.9 | 8.7 | 0.00 | 0.00 | 0.00 | 67 | 1012.6 |
| 20260506123052 | 58 | 271 | 1.7 | 7.8 | 0.00 | 0.00 | 0.00 | 65 | 1012.6 |
| 20260506121542 | 58 | 275 | 1.7 | 10.4 | 0.00 | 0.00 | 0.00 | 65 | 1012.5 |
| 20260506120052 | 58 | 270 | 2.6 | 6.1 | 0.00 | 0.00 | 0.00 | 65 | 1012.4 |
| 20260506114538 | 58 | 255 | 1.7 | 6.1 | 0.00 | 0.00 | 0.00 | 63 | 1012.3 |
| 20260506113055 | 59 | 304 | 4.3 | 9.6 | 0.00 | 0.00 | 0.00 | 63 | 1012.3 |
| 20260506111647 | 59 | 279 | 2.6 | 10.4 | 0.00 | 0.00 | 0.00 | 63 | 1012.2 |
| 20260506110054 | 58 | 269 | 2.6 | 7.0 | 0.00 | 0.00 | 0.00 | 63 | 1012.1 |
| 20260506104543 | 59 | 305 | 1.7 | 6.1 | 0.00 | 0.00 | 0.00 | 62 | 1012.1 |
| 20260506103055 | 59 | 252 | 1.7 | 6.1 | 0.00 | 0.00 | 0.00 | 60 | 1011.9 |
| 20260506101541 | 60 | 268 | 1.7 | 7.8 | 0.00 | 0.00 | 0.00 | 59 | 1011.8 |
| 20260506100055 | 60 | 284 | 4.3 | 8.7 | 0.00 | 0.00 | 0.00 | 58 | 1011.6 |